CW9451 Weather Reports


Display with metric or nautical units.
time (UTC)temp
F
wind
direction
speed
MPH
gust
MPH
rain 1hr
in
rain 24hr
in
rain mn
in
humidity
%
barometer
mb
20260905110905 66 0.0 0.0 0.00 0.00 0.00 77 1019.6
20260905105904 67 0.0 0.0 0.00 0.00 0.00 78 1019.6
20260905104905 67 0.0 0.0 0.00 0.00 0.00 79 1019.7
20260905103905 66 0.0 0.0 0.00 0.00 0.00 79 1019.5
20260905102904 66 0.0 0.0 0.00 0.00 0.00 77 1019.6
20260905101909 66 0.0 0.0 0.00 0.00 0.00 79 1019.5
20260905095908 68 0.0 0.0 0.00 0.00 0.00 76 1019.6
20260905093903 66 0.0 0.0 0.00 0.00 0.00 79 1019.6
20260905092904 66 0.0 0.0 0.00 0.00 0.00 82 1019.9
20260905091904 65 0.0 0.0 0.00 0.00 0.00 84 1019.8
20260905090908 65 0.0 0.0 0.00 0.00 0.00 86 1019.6
20260905084904 65 0.0 0.0 0.00 0.00 0.00 89 1019.8
20260905083909 64 0.0 0.0 0.00 0.00 0.00 89 1019.6
20260905080905 64 0.0 0.0 0.00 0.00 0.00 94 1019.5
20260905075904 63 0.0 0.0 0.00 0.00 0.00 97 1019.6
20260905074904 62 0.0 0.0 0.00 0.00 0.00 10 1019.3
20260905073904 62 0.0 0.0 0.00 0.00 0.00 10 1019.4
20260905072905 61 0.0 0.0 0.00 0.00 0.00 10 1019.3
20260905071905 61 0.0 0.0 0.00 0.00 0.00 10 1019.2
20260905070908 61 0.0 0.0 0.00 0.00 0.00 10 1019.2
20260905064904 60 0.0 0.0 0.00 0.00 0.00 10 1019.0
20260905063903 60 0.0 0.0 0.00 0.00 0.00 10 1019.0
20260905062903 59 0.0 0.0 0.00 0.00 0.00 10 1018.8
20260905061903 59 0.0 0.0 0.00 0.00 0.00 10 1018.7
20260905060903 59 0.0 0.0 0.00 0.00 0.00 10 1018.7
20260905055908 60 0.0 0.0 0.00 0.00 0.00 10 1019.0
20260905053903 59 0.0 0.0 0.00 0.00 0.00 10 1018.7
20260905052908 59 0.0 0.0 0.00 0.00 0.00 10 1018.5
20260905050904 59 0.0 0.0 0.00 0.00 0.00 10 1018.2
20260905045904 58 0.0 0.0 0.00 0.00 0.00 10 1018.1
20260905044903 58 0.0 0.0 0.00 0.00 0.00 10 1017.8
20260905043908 59 0.0 0.0 0.00 0.00 0.00 10 1017.7
20260905040904 59 0.0 0.0 0.00 0.00 0.00 10 1017.5
20260905035905 59 0.0 0.0 0.00 0.00 0.00 10 1017.6
20260905034909 59 0.0 0.0 0.00 0.00 0.00 10 1017.6
20260905031904 59 0.0 0.0 0.00 0.00 0.00 10 1017.2
20260905030909 59 0.0 0.0 0.00 0.00 0.00 10 1017.1
20260905024905 60 0.0 0.0 0.00 0.00 0.00 10 1017.0
20260905023904 60 0.0 0.0 0.00 0.00 0.00 10 1016.9
20260905022904 60 0.0 0.0 0.00 0.00 0.00 10 1016.9
20260905021904 60 0.0 0.0 0.00 0.00 0.00 10 1017.0
20260905020904 60 0.0 0.0 0.00 0.00 0.00 10 1016.9
20260905015904 60 0.0 0.0 0.00 0.00 0.00 10 1016.7
20260905014903 60 0.0 0.0 0.00 0.00 0.00 10 1016.7
20260905013908 60 0.0 0.0 0.00 0.00 0.00 10 1016.7
20260905005904 60 0.0 0.0 0.00 0.00 0.00 10 1016.5
20260905004903 60 0.0 0.0 0.00 0.00 0.00 10 1016.5
20260905003904 60 0.0 0.0 0.00 0.00 0.00 10 1016.6
20260905002909 60 0.0 0.0 0.00 0.00 0.00 10 1016.5
20260905000904 60 0.0 0.0 0.00 0.00 0.00 10 1016.4
20260904235905 61 0.0 0.0 0.00 0.00 0.00 10 1016.3
20260904234905 61 0.0 0.0 0.00 0.00 0.00 10 1016.1
20260904233905 61 0.0 0.0 0.00 0.00 0.00 10 1016.0
20260904232905 61 0.0 0.0 0.00 0.00 0.00 10 1016.1
20260904231905 61 0.0 0.0 0.00 0.00 0.00 10 1015.9
20260904230909 61 0.0 0.0 0.00 0.00 0.00 10 1015.9
20260904224903 61 0.0 0.0 0.00 0.00 0.00 10 1015.8
20260904223904 62 0.0 0.0 0.00 0.00 0.00 10 1016.1
20260904222905 62 0.0 0.0 0.00 0.00 0.00 10 1016.1
20260904221904 62 0.0 0.0 0.00 0.00 0.00 10 1015.8
20260904220904 62 0.0 0.0 0.00 0.00 0.00 10 1015.4
20260904215908 62 0.0 0.0 0.00 0.00 0.00 10 1015.4
20260904213905 62 0.0 0.0 0.00 0.00 0.00 10 1015.1
20260904212905 62 0.0 0.0 0.00 0.00 0.00 10 1015.0
20260904211904 62 0.0 0.0 0.00 0.00 0.00 10 1014.7
20260904210904 62 0.0 0.0 0.00 0.00 0.00 10 1014.5
20260904205904 62 0.0 0.0 0.00 0.00 0.00 10 1014.3
20260904204909 63 0.0 0.0 0.00 0.00 0.00 10 1014.4
20260904202905 63 0.0 0.0 0.00 0.00 0.00 10 1014.3
20260904201909 63 0.0 0.0 0.00 0.00 0.00 10 1014.1
20260904195904 63 0.0 0.0 0.00 0.00 0.00 10 1014.1
20260904194909 63 0.0 0.0 0.00 0.00 0.00 10 1014.2
20260904191903 63 0.0 0.0 0.00 0.00 0.00 10 1013.7
20260904190904 63 0.0 0.0 0.00 0.00 0.00 10 1013.8
20260904185909 63 0.0 0.0 0.00 0.00 0.00 10 1013.8
20260904183905 64 0.0 0.0 0.00 0.00 0.00 10 1013.1
20260904182904 64 0.0 0.0 0.00 0.00 0.00 10 1013.2
20260904181905 64 0.0 0.0 0.00 0.00 0.00 10 1013.2
20260904180904 64 0.0 0.0 0.00 0.00 0.00 10 1012.9
20260904175908 64 0.0 0.0 0.00 0.00 0.00 10 1012.6
20260904173905 65 0.0 0.0 0.00 0.00 0.00 10 1012.1
20260904172904 64 0.0 0.0 0.00 0.00 0.00 10 1012.4
20260904171909 64 0.0 0.0 0.00 0.00 0.00 10 1012.2
20260904165904 65 0.0 0.0 0.00 0.00 0.00 10 1011.9
20260904164904 66 0.0 0.0 0.00 0.00 0.00 10 1011.5
20260904163909 66 0.0 0.0 0.00 0.00 0.00 10 1011.5
20260904161905 67 0.0 0.0 0.00 0.00 0.00 10 1011.3
20260904160904 68 0.0 0.0 0.00 0.00 0.00 10 1010.5
20260904155904 68 0.0 0.0 0.00 0.00 0.00 10 1010.3
20260904154903 68 0.0 0.0 0.00 0.00 0.00 10 1010.0
20260904153908 68 0.0 0.0 0.00 0.00 0.00 10 1010.1
20260904150904 70 0.0 0.0 0.00 0.00 0.00 94 1010.2
20260904145909 71 0.0 0.0 0.00 0.00 0.00 93 1009.9
20260904143909 73 0.0 0.0 0.00 0.00 0.00 86 1009.7
20260904141905 76 0.0 0.0 0.00 0.00 0.00 81 1009.7
20260904140904 76 0.0 0.0 0.00 0.00 0.00 81 1009.8
20260904135908 76 0.0 0.0 0.00 0.00 0.00 81 1009.7
20260904133904 77 0.0 0.0 0.00 0.00 0.00 82 1009.7
20260904132905 76 0.0 0.0 0.00 0.00 0.00 85 1009.6
20260904131905 76 0.0 0.0 0.00 0.00 0.00 85 1009.7
20260904130905 76 0.0 0.0 0.00 0.00 0.00 88 1009.7
20260904125904 76 0.0 0.0 0.00 0.00 0.00 88 1010.0
20260904124908 75 0.0 0.0 0.00 0.00 0.00 90 1010.1
20260904122904 75 0.0 0.0 0.00 0.00 0.00 91 1010.5
20260904121904 74 0.0 0.0 0.00 0.00 0.00 94 1010.3
20260904120903 74 0.0 0.0 0.00 0.00 0.00 96 1010.3
20260904115904 75 0.0 0.0 0.00 0.00 0.00 96 1010.3
20260904114904 74 0.0 0.0 0.00 0.00 0.00 99 1010.5
20260904113904 73 0.0 0.0 0.00 0.00 0.00 10 1010.7
20260904112903 72 0.0 0.0 0.00 0.00 0.00 10 1011.0
20260904111908 72 0.0 0.0 0.00 0.00 0.00 10 1011.2